Theta_e
310 311 310 312 319 325 326 322 319 322 322 318 319 319 321 324 323 322 323 323 323 325 326 326 326 325 323 324 324 336 347 347 347 347 348 351 347 350 351 350 350 349 349 344 340 338 337 334 332 330 329 330 333 336 338 339 339 339 339 339 339 338 337 335 336 335 335 334 332 330 326 319 315 314 315 315 315 314 313 311 311 311 310 310 311 310 309 309 309 309 310 312 313 316 319 324 328
312 315 313 317 324 324 325 323 318 319 319 316 318 319 321 323 323 322 323 322 322 322 323 324 322 323 322 324 323 334 349 349 348 349 349 350 349 351 351 350 350 349 349 344 339 338 337 333 331 330 329 328 330 334 336 338 338 339 339 339 339 338 337 336 336 335 335 334 333 332 329 324 318 315 315 315 315 315 315 312 311 311 310 311 312 311 312 312 313 311 309 311 312 314 317 321 326
314 321 322 320 324 323 324 324 317 315 316 314 317 322 323 322 322 322 323 321 322 321 321 322 321 324 323 325 327 336 349 349 349 348 348 349 351 351 351 350 349 349 346 341 339 338 337 333 331 330 327 327 328 332 335 337 338 338 339 339 339 339 338 337 336 336 335 335 334 333 330 327 322 318 314 315 316 317 316 314 316 315 311 312 312 314 317 317 316 313 310 310 311 313 315 318 323
313 322 325 321 321 322 323 323 321 316 313 313 315 321 324 322 321 321 322 321 321 321 321 321 321 326 326 331 338 343 348 347 348 348 348 349 350 351 351 349 348 347 344 339 338 338 337 333 330 328 326 326 327 330 333 336 337 338 338 339 339 339 338 337 336 336 335 335 334 332 329 327 326 321 316 315 315 316 315 317 324 323 316 314 313 316 321 321 320 317 311 309 310 312 313 315 318
314 321 324 322 320 322 322 322 322 317 314 315 316 321 323 322 321 321 322 321 321 321 321 321 322 325 329 340 347 347 347 347 347 347 349 351 350 350 350 349 347 346 343 338 338 338 336 332 329 327 325 325 326 328 332 334 336 337 338 338 338 339 338 337 337 336 335 335 334 331 328 326 326 322 319 316 316 317 316 322 328 325 320 320 320 321 323 323 322 318 313 309 309 311 311 314 315
315 321 322 321 322 323 324 321 319 317 318 319 319 321 322 322 322 321 322 322 322 323 321 322 321 326 340 348 350 349 349 347 347 347 351 352 350 350 349 347 346 345 343 341 339 338 335 331 328 326 324 325 326 326 328 331 333 334 336 337 338 339 338 337 337 335 335 335 333 329 326 324 323 322 323 320 319 318 319 324 327 324 324 328 328 327 327 325 324 322 318 311 308 310 310 312 314
317 322 321 320 322 323 323 320 318 318 321 322 321 321 321 321 322 321 322 323 323 325 322 322 322 326 342 348 349 349 348 347 349 349 351 352 351 350 348 347 345 344 344 342 341 337 333 330 328 326 325 325 325 325 325 326 328 330 333 336 338 339 337 337 337 335 335 335 331 327 325 324 325 326 330 327 323 322 320 322 326 328 330 332 332 330 329 328 326 324 319 312 308 309 309 311 312
319 321 321 319 319 321 320 318 318 320 321 323 323 321 321 320 321 321 321 322 322 326 322 323 324 324 339 349 350 348 347 348 350 350 350 351 351 350 348 347 345 344 343 343 343 337 331 329 327 326 327 326 325 324 323 323 323 325 329 334 338 338 337 337 336 336 335 335 330 326 326 328 331 332 333 331 329 326 319 322 328 331 333 334 333 331 330 327 323 321 318 314 310 308 309 310 311
319 320 322 320 319 319 318 317 318 320 321 322 322 321 321 320 322 320 320 321 322 325 323 325 325 327 342 350 349 347 348 349 349 350 350 352 352 349 348 347 345 344 343 344 343 334 329 328 326 327 328 326 325 325 323 322 322 322 325 330 336 337 337 337 336 336 336 333 328 328 330 333 335 334 334 334 331 326 321 328 332 331 333 334 333 332 328 324 320 320 319 316 313 309 309 310 313
319 321 322 322 320 316 316 318 319 320 322 322 321 321 321 320 321 321 321 321 323 326 325 326 323 332 347 349 348 348 348 348 349 350 352 352 351 349 348 347 345 345 343 345 342 331 328 327 326 328 328 327 327 326 325 324 323 322 323 326 332 336 337 337 336 337 335 330 328 330 334 336 335 332 332 332 328 324 324 332 335 333 333 333 333 330 326 323 322 321 320 317 314 312 309 311 316
319 321 321 321 318 315 314 317 320 321 322 321 321 321 320 320 321 321 322 321 324 326 326 326 322 336 349 350 349 348 348 349 350 351 352 352 351 349 347 347 346 345 344 345 341 330 328 327 325 328 328 328 328 327 327 327 325 323 322 323 327 333 335 335 336 335 332 329 331 334 336 338 336 331 330 328 325 325 329 334 336 335 332 331 331 327 326 325 325 324 323 320 317 314 311 311 316
319 320 320 318 316 317 317 317 319 322 322 320 320 321 320 320 321 321 321 323 325 327 328 325 322 339 350 350 349 347 348 348 350 351 352 352 351 350 347 347 346 346 345 346 342 332 329 327 326 327 328 328 328 329 329 329 328 325 322 321 323 328 330 331 333 331 329 332 335 337 338 338 336 333 330 327 326 326 331 335 336 335 330 329 328 326 327 327 326 326 325 323 320 316 314 311 313
319 321 320 317 317 318 318 318 320 321 321 320 320 320 320 321 321 321 321 323 325 328 328 325 325 343 350 349 349 348 349 349 349 351 352 351 350 350 348 347 346 346 345 345 342 332 330 328 326 327 327 329 329 329 330 330 329 326 323 319 320 324 325 328 329 327 331 336 337 338 338 336 336 334 331 329 328 326 329 334 335 334 331 328 327 327 328 328 328 327 327 326 324 319 316 313 313
320 321 321 320 319 319 318 318 319 319 319 320 321 320 321 321 321 321 321 322 324 328 329 329 331 344 350 350 349 348 349 349 349 350 351 350 350 350 348 348 347 347 346 345 340 332 331 328 326 327 328 330 331 332 332 331 329 326 323 318 318 320 322 324 326 329 334 338 338 338 336 335 335 334 332 330 330 327 325 331 333 333 332 328 326 329 328 328 329 328 328 328 327 324 319 316 314
319 320 320 319 318 319 318 318 319 318 318 320 321 320 321 321 321 321 321 322 325 331 332 332 331 340 349 350 349 348 349 349 349 349 350 349 349 349 348 348 347 347 346 345 340 332 330 328 327 328 330 333 333 334 333 331 329 325 322 318 317 317 320 324 327 332 335 337 338 336 333 333 334 334 332 330 330 328 323 328 332 331 332 328 326 329 328 329 329 329 328 328 328 327 323 319 316
318 319 319 318 316 316 318 320 319 317 318 320 320 320 321 321 321 320 322 322 323 331 332 332 334 340 345 346 348 348 348 349 348 348 349 349 349 348 348 348 347 348 346 345 341 333 330 330 329 328 331 333 333 333 331 330 327 324 320 317 317 317 320 327 330 333 334 336 337 334 333 333 334 334 333 331 330 329 324 327 331 330 331 328 326 328 329 329 329 329 328 328 328 328 326 323 318
317 318 318 317 317 316 318 320 318 318 319 320 320 321 320 320 321 320 322 321 322 329 332 336 339 342 343 342 346 348 348 348 347 348 348 347 348 348 347 347 346 347 346 345 344 337 334 334 330 329 330 332 333 333 331 331 327 323 322 321 321 321 323 329 331 333 333 334 334 332 332 333 334 334 332 332 331 330 327 328 330 329 329 328 326 327 328 329 329 329 328 328 328 328 328 325 322
318 318 316 316 317 317 319 320 319 319 319 320 320 320 320 319 321 321 321 321 323 327 331 340 343 342 342 341 344 348 348 347 347 347 347 347 348 347 347 347 346 346 346 346 346 341 339 337 332 332 333 334 334 334 333 331 327 324 326 328 326 324 326 330 331 333 334 333 332 331 332 333 334 333 331 331 331 331 330 330 330 327 327 326 324 325 327 328 328 328 328 328 328 327 327 327 326
318 318 316 316 318 320 321 320 319 320 318 319 320 320 320 319 320 320 320 321 323 325 327 339 344 344 344 344 346 348 348 347 347 347 347 347 347 347 346 346 346 346 345 345 345 342 341 340 337 336 336 337 336 336 334 330 326 324 327 329 327 327 329 331 332 333 333 333 332 332 332 333 333 331 331 332 331 331 330 331 332 329 327 324 321 323 327 328 327 328 328 328 328 327 327 327 327
318 317 316 317 319 320 320 320 320 320 319 319 319 319 320 319 320 320 320 320 321 323 322 334 343 345 347 347 348 349 348 347 348 348 347 348 347 347 345 346 346 345 343 341 342 341 341 340 339 338 338 338 336 336 334 328 327 327 328 329 328 329 331 333 333 333 333 333 332 332 332 332 332 331 331 332 331 330 330 331 330 328 326 322 320 321 325 327 326 326 326 327 327 327 330 330 329
317 317 317 318 319 319 320 321 319 319 318 318 319 318 319 319 320 319 320 320 320 322 323 336 343 346 347 347 348 348 348 348 348 348 348 348 347 346 346 345 344 343 342 338 337 338 339 340 339 339 338 337 336 337 334 330 330 331 331 331 330 331 334 334 334 333 333 333 332 332 332 331 331 330 330 332 331 331 331 330 326 323 321 319 319 319 322 325 326 325 326 328 326 327 332 333 332
317 317 318 318 319 319 319 320 319 319 318 318 318 318 318 319 319 319 320 319 320 322 327 338 342 343 344 346 347 348 348 348 349 348 347 346 345 346 346 343 343 343 341 338 337 338 338 339 338 338 337 338 338 337 336 333 334 333 332 332 331 333 334 334 334 333 332 332 331 331 330 330 330 329 330 331 331 332 332 327 322 320 319 319 318 318 319 321 323 323 326 328 328 329 333 334 332
317 318 318 318 318 319 319 319 319 319 318 318 318 318 318 319 319 319 320 319 320 321 326 338 340 339 340 343 347 348 349 348 347 344 342 343 343 343 343 342 343 343 341 338 338 340 339 338 338 337 337 338 338 337 337 336 336 335 333 333 333 333 334 333 334 333 332 332 331 329 328 329 330 328 329 331 331 332 330 325 322 320 321 322 322 322 322 321 322 322 324 326 328 330 332 333 331
317 317 318 319 318 319 319 319 318 318 318 318 317 318 318 318 319 318 320 319 321 320 324 336 340 338 337 341 346 348 347 345 342 341 339 340 342 340 340 343 344 343 341 339 338 339 338 337 337 337 336 336 337 336 337 336 336 336 334 334 334 334 334 333 333 333 332 332 331 329 328 329 329 328 329 331 331 330 328 329 329 326 327 329 328 329 329 328 329 328 328 325 325 329 331 332 331
317 316 318 318 318 319 319 318 319 318 318 318 317 317 318 318 318 318 319 319 320 320 320 332 339 339 338 340 345 347 346 344 341 339 337 340 343 340 340 343 344 343 342 340 338 336 335 335 337 336 335 335 335 336 337 336 336 336 334 333 334 333 333 334 333 332 332 332 332 330 329 329 329 329 330 330 330 328 330 332 332 331 332 332 331 332 332 331 331 331 330 327 326 330 331 332 331
317 317 318 318 318 318 318 319 318 318 318 318 318 317 318 318 318 318 319 318 319 321 320 327 338 340 340 343 345 346 345 343 338 336 336 342 344 340 342 344 343 343 341 341 339 335 334 335 336 335 332 332 333 335 336 336 336 335 334 333 333 333 333 334 333 332 332 331 331 331 330 330 329 329 329 329 329 329 332 333 333 333 333 332 329 330 331 330 330 329 331 331 330 332 331 332 330
318 318 318 318 318 318 318 318 318 318 318 318 318 317 318 318 318 317 318 319 318 320 322 322 332 339 342 344 344 345 344 341 337 337 339 344 345 342 343 344 343 342 341 340 338 336 335 335 336 335 333 331 331 334 336 336 336 335 334 333 332 333 333 334 333 333 333 332 331 331 331 331 330 329 327 327 329 332 334 333 333 333 333 331 329 331 332 330 329 330 331 331 331 331 331 331 330
318 318 318 318 318 318 318 318 318 319 318 318 318 317 318 317 317 318 318 319 319 320 323 322 332 339 341 341 340 340 343 342 337 339 343 346 347 345 344 344 343 342 341 340 338 337 335 334 335 336 336 335 333 334 335 336 336 335 334 333 331 331 333 333 333 333 332 332 331 331 331 331 330 327 326 327 331 333 333 333 332 331 330 330 331 332 332 330 330 332 332 332 331 331 331 331 329
317 317 316 317 318 318 318 318 318 318 317 318 318 316 316 317 317 318 318 318 320 321 322 325 334 338 341 337 334 336 342 342 339 341 346 347 346 346 345 344 343 342 341 340 338 337 335 334 334 335 335 335 335 334 335 336 336 335 334 333 332 331 332 333 334 333 331 331 331 332 331 330 329 327 326 329 331 332 332 333 331 330 330 329 329 329 329 329 330 331 332 333 333 331 331 331 329
316 317 316 316 316 316 317 318 317 318 317 318 317 314 314 317 318 318 318 318 319 323 322 325 335 339 339 335 337 341 344 344 342 344 348 347 346 346 346 345 344 342 341 340 338 337 335 334 334 334 334 335 336 336 336 336 335 335 334 333 332 332 332 331 332 333 331 330 332 332 330 330 331 327 327 329 329 329 331 333 331 331 331 331 329 327 328 330 330 330 330 333 333 331 331 331 331
316 316 316 315 313 314 317 318 318 317 317 318 317 313 313 316 318 318 318 318 319 323 321 323 335 340 337 336 342 345 347 346 344 345 346 347 346 346 346 345 345 343 341 340 338 337 335 334 335 335 335 336 337 337 336 335 335 335 334 333 333 332 332 331 331 332 331 331 332 332 329 329 330 329 328 328 327 330 332 333 333 332 332 331 329 328 329 330 331 331 331 333 333 332 332 331 332
316 314 313 315 313 314 318 319 318 317 317 318 316 313 314 316 318 319 319 318 319 321 321 321 334 341 340 342 344 344 346 346 345 345 345 345 346 346 346 345 345 343 341 340 338 338 336 334 335 336 336 337 337 336 336 336 336 336 335 333 333 332 332 333 333 331 331 331 331 331 329 327 330 330 329 328 330 333 332 331 332 332 330 329 328 328 329 331 332 332 331 333 332 332 332 332 331
316 315 312 314 314 314 317 318 318 318 317 318 316 314 315 316 318 320 319 319 319 320 322 320 331 340 341 343 342 341 343 344 344 345 344 345 344 344 345 345 345 343 341 340 339 338 337 335 335 335 336 337 336 336 337 336 337 336 335 333 333 332 332 334 335 333 331 330 329 329 329 329 329 328 328 331 333 333 332 331 331 331 328 328 328 328 330 332 332 332 332 332 332 332 332 332 331
315 316 314 314 315 314 315 317 318 319 317 317 317 316 316 316 318 320 319 320 319 320 321 319 330 338 338 340 339 338 340 341 343 343 344 345 344 343 344 345 344 343 341 339 338 338 337 336 335 336 336 336 336 336 336 336 336 336 334 333 334 333 332 333 334 334 332 331 329 329 330 330 329 328 329 332 333 333 333 331 330 330 328 329 329 328 331 332 332 332 332 332 332 331 331 331 331
315 315 315 315 315 315 315 317 318 319 317 317 317 316 316 317 318 320 320 320 320 320 321 319 330 337 336 337 337 336 337 337 340 342 343 344 343 343 343 344 343 343 341 338 337 337 337 336 335 336 336 336 336 336 336 336 336 335 333 333 334 334 334 332 332 333 333 332 331 330 331 330 329 331 331 331 332 333 333 330 330 329 328 329 328 328 331 332 332 332 330 331 331 331 331 331 331
317 317 317 315 315 315 317 318 318 318 317 317 317 316 316 317 318 319 319 320 320 320 321 319 328 337 335 335 336 334 334 335 337 340 341 342 342 343 343 344 343 342 339 336 337 337 336 336 336 336 336 336 336 335 336 335 335 334 333 333 334 334 334 333 333 334 332 332 332 332 332 330 330 332 331 330 332 333 333 331 330 328 328 329 328 330 332 331 332 331 329 330 330 330 332 331 331
317 318 317 317 316 316 318 319 318 318 317 317 318 316 316 317 317 319 319 319 319 319 320 318 324 336 336 334 335 334 333 334 333 338 340 338 340 344 343 343 342 341 338 335 337 337 336 336 337 337 336 336 336 336 335 335 334 333 333 334 333 333 335 334 334 333 332 332 333 333 332 331 330 331 331 329 330 332 332 331 329 328 329 329 328 330 332 331 330 329 328 329 329 331 332 331 331
317 317 316 317 316 316 319 319 318 319 317 317 318 317 317 317 317 318 318 318 319 319 320 319 319 329 334 334 334 334 334 332 332 337 340 336 338 343 343 342 342 340 335 333 335 335 335 336 336 336 335 335 336 336 336 335 334 333 333 334 333 333 334 334 333 333 332 333 334 333 332 330 328 330 332 330 329 330 330 329 329 328 329 329 328 329 330 331 329 328 328 328 330 331 331 331 331
316 317 317 316 317 317 318 318 319 318 318 317 318 317 317 318 318 318 319 318 319 319 319 320 319 320 327 333 335 334 333 332 331 334 337 337 338 342 343 342 342 339 335 333 334 334 333 334 335 336 336 335 336 335 335 334 333 334 334 334 333 333 333 332 332 332 332 332 333 333 332 331 330 331 332 331 329 328 328 329 329 329 329 330 329 328 329 329 328 329 328 328 330 331 331 331 331
317 318 317 316 317 316 314 317 319 318 318 318 318 318 317 318 319 318 320 319 319 319 318 319 320 319 321 329 334 335 334 332 332 333 334 336 339 342 343 342 342 339 335 335 336 335 333 333 334 336 335 335 335 334 334 333 333 334 334 333 334 333 333 331 331 332 332 332 333 333 333 332 332 332 332 331 330 328 329 329 329 329 330 330 329 328 328 329 329 329 329 329 330 330 331 331 330
318 318 317 316 316 316 314 317 318 318 319 319 318 316 316 318 318 318 319 319 319 319 319 318 319 319 319 323 331 334 334 331 333 337 335 335 340 343 343 341 341 340 336 335 336 334 332 333 335 335 334 334 334 334 334 333 333 333 333 333 334 333 332 331 331 331 331 332 332 331 332 332 331 331 331 331 330 329 329 329 329 330 329 329 329 329 329 329 330 330 329 330 329 329 331 331 330
317 318 317 316 316 316 316 317 318 316 316 318 318 314 314 317 317 318 318 317 319 318 319 319 318 320 319 319 325 331 334 331 331 336 334 335 341 343 342 341 338 337 336 334 332 331 331 332 333 334 335 334 334 333 333 333 332 332 333 333 333 333 331 330 330 331 331 331 332 331 331 332 331 331 331 330 330 330 329 328 329 330 329 328 328 330 330 330 331 331 330 330 329 329 330 331 330
314 316 317 317 316 316 316 316 316 314 313 317 318 314 313 316 316 319 319 318 319 318 319 319 317 319 319 319 320 324 331 331 331 335 335 337 343 343 342 340 334 331 333 335 334 331 331 332 332 333 334 335 335 334 333 333 332 332 332 333 333 332 331 330 330 331 330 330 331 331 332 331 331 331 331 331 330 329 329 328 328 330 329 329 329 330 330 330 331 332 331 330 330 330 330 331 331
314 316 317 317 316 316 316 315 315 315 315 316 317 315 313 313 315 319 319 318 319 318 320 322 321 319 319 322 323 321 326 331 335 338 337 338 342 342 341 339 333 328 329 336 336 331 330 331 331 331 333 335 336 335 334 333 332 332 332 332 332 331 330 330 329 331 331 329 330 331 331 331 331 331 331 331 330 329 329 329 329 330 330 330 329 330 331 331 331 332 332 330 330 331 330 331 331
315 317 317 316 317 317 317 316 315 316 315 313 314 315 313 312 315 319 318 318 319 320 325 328 327 325 326 327 327 326 325 329 335 337 337 339 340 340 340 336 331 328 331 336 335 329 328 329 330 331 332 336 337 335 334 333 332 333 333 333 331 330 330 329 329 331 331 330 331 331 331 331 331 331 331 331 330 328 328 329 329 329 329 329 330 331 331 331 331 331 331 330 330 331 329 329 330
316 317 316 316 316 317 317 316 314 314 315 313 314 314 313 312 314 316 317 321 325 327 328 329 328 328 329 329 329 328 325 328 333 335 336 339 338 336 337 334 330 330 333 335 334 329 328 329 329 331 334 337 337 334 333 332 332 333 333 333 331 329 329 328 329 331 330 330 331 331 331 331 331 332 332 331 329 327 326 326 326 326 326 327 328 330 330 329 330 331 331 329 330 330 329 329 329
317 317 316 316 316 317 317 316 314 314 314 313 313 314 313 312 313 316 319 324 328 329 329 329 328 328 328 329 329 329 327 329 334 334 335 337 337 334 334 332 330 332 333 335 334 330 328 329 330 332 335 337 336 333 330 328 331 333 333 333 331 328 327 327 330 331 330 329 330 331 332 333 333 332 330 329 327 326 324 324 324 324 323 324 327 330 330 329 329 329 330 329 328 330 330 329 329
317 316 315 315 315 315 315 314 314 313 313 313 313 314 313 311 313 319 324 326 328 328 328 327 328 327 328 329 329 329 330 333 334 334 333 334 335 336 336 333 331 333 334 335 335 331 330 332 333 335 336 336 336 333 330 327 329 333 333 332 331 329 327 327 329 330 330 330 331 332 333 333 333 330 328 326 325 324 322 322 323 323 323 323 326 329 329 329 328 327 328 328 327 328 329 329 329
316 315 314 314 313 313 313 312 313 313 313 313 313 314 313 314 318 322 324 326 327 328 329 329 329 330 331 331 329 329 332 335 334 334 333 333 334 336 336 335 333 334 335 335 335 334 334 335 336 336 336 335 334 332 330 327 327 331 333 333 332 330 329 328 328 330 331 330 331 333 333 332 331 330 328 326 326 325 322 322 322 322 324 323 324 327 329 329 329 327 327 327 326 326 327 329 329
315 314 314 313 313 313 313 312 313 313 314 315 316 315 313 316 324 325 323 325 327 329 330 331 332 333 334 333 331 330 331 334 333 332 332 332 333 334 335 337 337 337 336 336 336 336 336 336 336 335 334 333 331 328 327 327 328 330 331 331 330 330 330 329 328 330 331 330 331 332 332 331 331 328 325 325 325 323 321 322 322 322 324 323 322 324 327 329 329 328 327 327 327 326 326 327 327
316 315 315 314 313 313 313 312 314 315 316 317 317 316 314 317 323 325 325 326 327 328 329 330 331 333 335 334 333 332 330 332 332 331 330 330 332 334 335 336 336 336 335 335 336 336 336 336 335 335 333 331 329 326 325 327 330 331 329 328 330 330 329 329 328 329 331 331 331 332 331 331 329 325 324 324 322 319 320 321 322 323 324 323 321 321 324 328 328 328 328 327 327 327 326 326 326
317 317 315 314 314 314 312 313 315 315 316 316 316 316 319 322 324 325 327 328 328 328 328 330 331 332 334 334 334 333 332 333 332 331 331 331 332 335 335 333 333 335 335 335 336 337 336 336 335 334 332 330 328 327 326 326 330 333 331 329 330 329 328 328 327 327 329 330 331 331 331 331 329 328 328 326 320 320 321 319 320 324 324 322 321 320 320 323 325 327 328 328 327 326 325 325 326
316 316 314 314 315 315 313 313 315 315 315 316 316 317 320 324 326 326 327 328 328 327 328 330 331 331 331 331 332 331 332 333 331 330 331 331 331 332 333 332 332 335 335 333 333 335 335 335 334 333 331 330 328 327 325 326 330 333 331 329 329 327 326 327 325 325 328 330 330 331 330 330 330 330 330 326 323 324 322 320 320 321 321 320 320 320 321 323 323 323 326 327 327 326 326 325 326
315 314 315 316 316 315 314 314 314 315 316 316 315 316 320 325 327 326 326 327 328 328 328 329 330 329 328 328 329 330 331 332 331 330 331 332 331 330 332 333 333 333 333 332 332 331 332 335 333 332 332 330 328 327 326 327 330 332 330 329 327 324 325 326 323 324 328 329 330 330 330 330 329 330 329 326 325 323 321 323 323 320 319 320 320 321 324 326 325 320 322 327 328 327 326 326 326
315 316 317 317 316 314 314 314 314 316 317 317 315 315 321 326 326 325 326 327 327 328 328 328 328 328 327 327 327 327 328 330 331 331 331 331 331 330 332 332 331 332 332 332 332 330 331 334 333 332 332 331 329 329 327 328 332 333 330 328 325 322 325 327 324 326 329 329 330 330 330 330 329 329 327 324 322 317 317 322 322 320 320 321 321 322 324 327 325 320 323 327 327 327 327 327 327
316 316 317 317 316 315 315 314 314 315 316 317 315 315 323 326 325 326 326 326 327 327 328 327 325 326 327 327 328 327 328 330 331 332 331 332 331 331 332 331 330 331 332 332 333 332 332 333 333 333 333 332 331 331 330 328 330 332 329 325 323 322 326 328 327 328 330 329 329 330 330 329 328 327 323 319 316 313 316 320 321 322 322 321 322 321 322 326 324 322 325 327 327 328 328 328 328
315 314 314 315 315 316 316 316 315 314 315 317 316 318 324 326 325 326 326 326 326 326 326 325 325 327 327 328 328 328 329 329 329 330 331 331 331 332 332 331 330 331 332 332 333 334 334 334 334 334 334 333 333 332 332 329 329 330 328 324 322 323 327 329 329 330 330 329 330 330 330 327 325 322 315 313 314 314 319 324 324 324 324 323 324 322 321 325 325 322 323 325 327 327 326 327 327
316 315 314 314 315 315 315 315 315 315 316 318 317 320 326 327 325 326 325 325 325 324 324 325 325 326 326 326 326 326 327 327 327 328 328 329 329 330 331 331 330 331 332 333 333 333 333 333 332 333 333 333 333 332 331 330 331 330 327 325 323 323 326 328 330 330 329 329 330 330 327 323 322 318 312 315 320 320 321 325 325 324 324 324 324 323 322 323 324 323 320 322 324 323 324 325 324
Wind_Speed
3 2 4 6 4 2 7 9 5 4 5 7 9 9 11 10 5 3 0 5 3 6 10 5 5 4 5 7 9 8 18 11 7 5 5 9 13 11 12 18 18 15 11 18 24 22 21 19 18 18 17 18 19 20 20 20 19 19 19 18 18 17 17 15 14 14 13 11 11 11 11 11 10 10 10 10 11 12 13 14 15 16 17 17 16 16 17 17 17 17 17 16 17 18 18 18 19
6 2 2 2 3 6 8 10 5 4 7 7 9 11 8 2 1 7 3 8 8 9 9 7 7 6 5 5 10 1 16 16 14 14 14 14 16 14 15 16 16 15 12 20 25 22 22 20 19 18 18 18 18 19 19 20 19 19 19 19 18 18 17 15 15 14 13 12 11 11 11 11 9 9 9 9 10 11 12 14 16 17 17 17 16 16 17 16 16 17 17 17 17 17 18 18 18
7 5 5 4 7 10 9 7 6 6 6 8 8 7 5 2 2 1 4 9 9 6 5 6 6 6 7 5 4 2 12 15 16 17 16 15 17 17 16 17 16 12 12 23 25 22 23 21 20 18 18 18 18 19 19 20 19 19 19 19 18 18 17 16 15 15 14 12 11 11 11 11 9 8 8 8 8 10 11 13 16 17 16 16 15 13 14 14 15 16 16 16 17 17 18 19 19
7 10 8 9 9 10 7 5 6 7 7 8 6 1 4 5 7 7 7 8 6 4 3 7 5 2 7 4 4 8 11 12 13 15 14 13 17 20 19 19 17 11 14 25 25 23 23 21 21 19 18 18 18 18 19 19 19 19 19 19 18 18 17 16 15 15 15 12 12 11 11 11 9 8 8 8 7 9 10 12 15 15 14 14 14 12 12 13 14 15 15 16 16 17 18 19 19
8 9 6 11 8 6 5 5 6 7 7 8 5 4 5 6 9 6 6 5 4 4 5 8 5 5 4 6 10 7 8 10 13 13 13 14 18 21 20 18 15 11 16 24 24 23 23 22 21 19 19 19 19 18 19 19 19 18 18 18 17 17 17 16 16 15 15 13 12 11 11 11 10 8 7 7 7 8 10 13 14 13 13 14 13 12 13 13 13 14 15 16 16 17 18 19 20
8 3 7 11 10 8 5 6 6 8 10 10 8 3 6 8 10 6 3 3 1 2 6 8 9 4 5 13 17 12 7 8 12 12 14 16 18 20 19 17 15 15 18 20 21 23 23 23 22 20 21 19 19 18 18 18 18 18 17 17 17 17 17 17 15 15 15 12 11 11 12 12 11 9 7 7 6 9 11 13 14 13 13 13 13 12 12 12 13 13 13 15 17 18 19 20 20
5 4 8 10 10 8 5 7 7 8 9 10 10 3 10 9 8 4 4 3 0 2 6 6 9 4 7 12 14 14 9 7 11 13 14 14 17 19 18 17 17 18 19 17 18 23 23 22 22 21 21 20 20 19 18 18 17 17 16 16 17 17 17 16 15 14 14 13 12 12 12 12 11 9 8 8 7 8 11 12 14 14 13 12 11 11 12 12 12 12 14 16 17 17 18 20 21
7 9 9 7 6 6 6 7 8 9 6 6 7 6 10 5 5 2 4 3 2 1 4 3 6 7 5 15 12 10 12 12 14 14 13 14 17 20 20 16 18 20 21 17 16 23 24 23 23 22 22 21 20 19 18 18 17 17 16 16 17 17 17 16 15 14 13 13 13 13 13 12 10 9 10 9 7 7 9 12 13 14 14 11 10 10 11 12 14 15 16 16 16 17 18 20 21
10 10 9 7 5 6 7 8 9 10 9 5 2 8 8 3 4 3 5 5 6 4 7 5 5 4 12 21 15 12 14 13 14 14 14 17 19 21 20 17 19 21 21 16 15 24 26 23 24 22 22 21 20 19 18 18 17 16 16 16 16 16 16 15 15 14 13 13 14 14 12 12 12 12 11 10 8 6 8 12 10 10 12 11 10 10 12 14 16 17 17 16 16 17 17 19 22
11 11 8 5 6 7 7 9 7 9 12 3 6 7 6 4 5 4 5 8 8 5 7 5 6 4 17 17 13 12 12 12 13 15 16 18 20 20 20 19 19 20 20 15 15 25 26 24 25 23 23 21 20 19 18 17 16 16 15 15 16 16 15 15 15 14 13 13 14 12 12 13 14 13 12 11 9 7 10 13 10 8 10 12 10 11 13 15 16 16 16 16 17 17 17 19 23
9 11 9 6 6 7 7 8 7 9 8 3 5 5 6 4 4 5 5 8 8 7 6 4 5 7 17 11 12 12 11 13 13 16 17 17 18 17 19 21 18 18 20 15 16 25 26 25 25 24 23 21 20 18 18 17 16 15 15 15 15 15 15 15 15 13 13 13 12 11 13 14 13 12 13 11 10 11 12 13 12 9 9 11 11 12 14 15 15 15 15 16 16 16 17 19 21
8 7 7 6 5 6 7 8 9 6 4 4 0 7 7 2 2 5 5 6 9 8 6 5 5 11 15 8 11 11 13 14 13 15 16 17 17 17 19 21 19 17 19 15 18 27 26 27 26 24 23 21 20 19 18 16 16 15 14 14 14 15 15 15 14 13 13 12 12 12 13 14 13 12 12 12 12 13 13 13 12 10 9 10 11 13 14 14 14 14 14 15 15 15 16 18 20
9 7 6 6 6 7 9 9 9 6 1 2 4 9 6 2 1 4 6 8 10 7 4 7 6 15 13 9 11 12 15 15 14 15 15 17 16 17 18 19 20 17 16 15 20 28 26 27 27 26 24 21 20 18 18 16 16 14 13 13 13 15 15 14 14 14 14 12 14 14 13 12 12 11 11 11 12 12 13 13 12 11 10 10 12 13 14 14 13 13 13 14 13 13 14 16 18
11 9 7 6 6 8 9 8 8 7 3 8 9 6 3 2 3 4 7 9 10 6 5 3 8 15 12 11 10 12 16 16 16 15 15 16 16 17 18 18 20 16 14 15 21 29 27 28 28 26 24 21 20 18 18 16 15 14 13 13 13 14 16 15 15 15 15 15 17 16 13 12 12 11 10 10 10 12 13 14 13 12 10 10 12 12 14 14 13 12 12 13 13 12 12 13 15
12 11 7 5 7 8 8 7 7 8 2 11 7 6 2 4 3 4 7 8 9 4 7 4 2 5 10 10 9 16 19 18 17 16 16 15 15 17 17 18 19 17 17 16 21 28 27 27 27 26 24 20 20 18 18 17 15 14 13 13 13 14 16 16 16 16 16 17 18 16 13 12 12 10 9 9 9 10 13 15 14 12 10 9 12 13 14 14 12 12 12 12 12 11 11 11 14
12 10 6 5 7 6 7 8 7 8 3 9 3 6 1 4 2 4 4 5 12 5 5 8 2 6 9 9 10 19 21 20 19 18 18 16 15 16 17 18 19 18 20 18 19 27 26 24 25 24 23 20 19 19 18 17 15 14 14 14 14 15 16 17 16 16 17 19 18 15 13 12 12 10 9 8 8 9 12 14 13 11 10 9 12 14 14 14 13 12 12 12 12 11 10 10 12
11 9 6 5 8 8 8 5 3 3 7 9 4 7 3 2 2 3 4 7 12 5 4 1 9 9 7 6 12 20 22 21 20 20 19 18 17 16 17 18 19 18 22 20 18 23 23 20 23 22 21 19 18 18 17 17 16 15 14 15 14 16 17 16 16 15 17 18 16 14 13 12 11 10 9 9 9 9 11 13 12 12 10 10 11 13 15 14 12 12 12 12 11 11 10 9 9
9 6 6 6 7 8 6 6 6 4 9 8 6 7 3 3 4 5 6 9 10 5 5 10 15 7 7 8 14 20 22 21 20 22 21 21 19 18 18 18 19 20 22 23 19 20 23 20 20 21 20 19 18 17 16 16 17 16 15 15 14 16 16 16 15 15 16 16 15 14 14 13 11 10 9 9 10 9 10 12 12 11 11 11 11 13 15 14 12 11 11 11 11 10 10 9 8
9 6 5 8 8 6 5 7 5 5 7 5 3 3 1 3 5 5 7 8 6 6 9 12 18 12 11 11 16 20 23 22 22 23 23 21 20 19 19 18 18 19 20 21 20 19 22 21 19 20 19 17 18 17 15 16 16 16 15 15 14 16 15 16 16 15 16 16 16 16 15 14 12 11 10 10 10 10 10 10 10 9 10 10 10 12 13 13 12 11 10 10 10 10 9 8 7
10 9 5 9 9 5 7 6 5 6 6 4 4 3 3 6 7 4 6 9 7 9 11 11 19 16 14 13 15 18 21 23 24 24 24 22 20 19 19 18 16 16 11 6 12 14 15 21 21 19 18 17 18 17 17 18 17 15 14 14 14 16 16 16 16 16 17 17 17 16 14 14 13 12 12 12 11 11 11 10 9 8 8 9 10 12 12 12 12 11 11 10 9 9 7 7 7
10 9 8 11 9 7 6 5 5 7 7 7 7 5 5 9 7 6 8 9 7 8 9 10 24 19 16 15 15 18 20 21 23 25 24 22 21 20 18 16 15 15 8 6 7 11 10 16 19 18 16 15 17 18 19 19 17 16 15 15 16 17 17 17 17 17 17 18 18 16 14 14 13 13 14 13 11 11 10 9 9 8 8 10 12 13 13 13 12 11 10 9 9 7 5 4 6
8 8 12 15 12 9 6 4 4 6 8 10 10 8 9 9 7 8 11 10 7 8 8 16 27 20 18 17 17 18 20 20 22 23 21 19 18 18 16 14 12 13 11 6 8 13 14 14 17 18 16 16 17 17 17 17 17 18 18 17 17 18 18 18 17 17 17 17 17 16 16 16 14 14 14 13 12 10 8 8 8 7 7 9 11 11 11 11 11 10 9 8 8 7 5 5 5
8 8 12 16 14 11 8 5 3 4 6 10 10 9 10 9 8 10 12 12 12 10 4 16 21 18 16 17 19 18 19 19 16 11 10 13 13 10 9 10 10 12 11 10 10 13 16 15 15 17 18 18 17 16 16 17 18 18 17 17 17 18 18 19 18 17 17 17 18 17 17 17 16 16 15 13 12 9 7 8 7 7 7 7 9 9 7 8 8 8 8 7 7 7 7 6 6
10 9 11 14 13 10 12 10 5 5 7 10 10 10 10 8 9 11 13 12 13 12 2 14 16 16 17 18 19 17 13 8 4 4 7 14 13 4 3 7 10 12 9 9 11 12 15 15 16 19 21 19 16 18 19 19 20 18 16 17 18 18 18 19 19 18 18 17 17 17 17 17 18 17 16 14 12 9 7 6 5 6 6 4 7 8 6 7 6 6 7 6 6 7 7 6 8
12 11 11 13 13 10 11 11 9 9 10 11 11 11 12 12 12 13 14 9 13 15 1 10 18 21 20 19 17 12 7 3 5 12 13 14 12 5 5 8 8 10 10 10 12 12 14 16 19 21 23 20 18 20 20 21 21 18 17 18 17 18 18 19 18 18 18 18 17 16 17 18 18 18 16 15 12 10 9 7 6 7 8 7 7 10 9 8 8 10 8 4 5 5 5 7 9
9 12 14 13 14 12 10 11 11 12 11 11 11 11 13 15 13 13 15 13 19 16 2 4 18 24 18 17 16 12 9 10 12 15 15 13 13 11 12 12 11 12 12 13 13 13 15 18 20 22 22 22 22 21 20 22 22 18 18 18 16 17 18 18 18 17 17 18 18 17 17 17 18 18 16 15 13 12 10 9 8 8 10 11 9 10 10 10 11 10 7 4 5 4 4 5 8
5 10 13 13 14 14 13 12 12 12 12 12 12 11 12 15 12 10 13 18 22 12 4 10 12 18 18 20 15 10 10 13 13 15 18 15 14 13 14 15 15 14 13 13 15 14 18 21 20 22 23 24 24 23 22 23 22 19 19 18 17 18 18 18 17 17 17 17 19 19 18 16 18 18 16 15 14 13 11 10 11 11 12 11 9 9 9 9 9 7 8 8 8 6 5 5 8
10 10 10 11 13 14 15 14 12 10 10 12 13 12 13 14 12 10 14 20 18 10 10 12 8 18 22 21 13 5 11 15 15 17 18 15 14 14 16 17 16 15 15 15 16 16 18 21 20 22 25 24 25 25 24 24 22 20 19 19 19 19 16 17 17 16 17 17 19 22 20 18 18 18 17 16 14 13 13 12 12 12 12 10 10 10 9 9 8 7 8 8 8 7 8 9 9
14 11 9 11 12 13 15 15 15 12 9 13 13 10 11 12 13 14 18 25 16 10 13 9 14 20 22 22 14 8 14 16 17 17 15 14 14 14 16 17 17 16 16 16 17 16 17 20 21 22 23 23 24 24 24 25 23 20 20 20 20 20 17 17 16 16 17 17 20 22 21 20 19 18 18 17 15 15 14 13 13 12 10 10 10 10 9 10 9 8 9 8 9 10 9 9 10
12 11 8 9 10 10 15 17 17 14 12 12 7 6 9 10 16 18 19 25 16 10 12 9 17 21 22 22 17 14 14 15 16 15 12 13 13 13 15 14 15 17 18 17 17 15 17 21 22 23 22 22 24 23 24 25 24 21 20 20 19 19 19 17 15 15 17 19 21 21 20 19 18 19 18 17 17 17 15 14 13 12 11 11 10 10 10 10 9 8 9 8 8 10 9 9 9
8 9 8 7 7 9 15 16 15 12 12 11 5 4 9 12 16 20 22 23 17 12 12 12 15 22 21 21 18 16 14 12 14 13 11 12 12 12 15 15 14 16 19 18 18 16 18 22 23 24 23 23 24 22 22 22 23 21 20 20 19 18 19 18 15 14 17 20 22 22 21 20 18 18 18 19 20 17 15 15 14 13 12 11 10 10 10 9 8 8 10 9 8 9 9 9 7
7 7 7 7 7 9 11 12 14 10 9 10 7 6 8 13 17 18 27 25 18 12 10 13 13 22 20 20 18 14 13 11 13 14 11 11 12 12 14 16 15 15 18 18 18 17 19 23 24 24 24 23 23 22 22 21 20 19 19 19 19 20 19 17 16 16 17 19 21 22 21 20 19 18 19 19 19 15 14 14 14 13 11 10 10 10 10 9 8 8 10 10 9 9 7 7 6
7 7 7 8 8 8 5 11 15 12 9 9 9 9 7 11 15 10 16 17 12 10 10 14 11 22 20 20 18 14 13 11 12 12 11 12 13 11 13 16 16 16 16 17 18 19 21 23 24 24 24 23 23 23 23 22 21 18 18 18 18 20 19 16 16 17 19 19 20 20 20 20 19 19 21 20 16 14 14 14 13 11 10 10 10 11 10 9 9 9 9 9 9 9 7 5 6
6 7 7 9 10 9 5 11 14 13 9 7 10 9 9 14 13 2 11 12 9 11 12 14 9 20 18 18 18 15 14 11 10 10 12 13 12 11 12 16 18 16 17 17 16 19 20 22 25 23 24 24 24 25 23 23 22 18 17 18 18 19 16 15 15 16 19 20 20 20 20 21 20 19 20 18 16 15 14 12 11 10 10 10 10 11 11 10 9 10 9 8 8 9 8 7 7
8 9 7 8 10 11 7 8 12 11 8 7 10 9 9 15 13 2 8 11 12 13 14 16 12 19 18 18 18 16 15 12 11 12 14 13 11 10 12 16 19 17 18 17 14 19 19 21 26 24 23 25 24 24 24 23 21 18 18 18 19 18 15 15 16 15 18 18 19 20 20 20 18 17 17 17 17 15 13 12 11 10 10 10 10 11 11 10 10 10 9 9 8 7 7 8 8
12 9 6 8 8 9 10 5 10 8 6 7 8 9 9 12 13 8 8 11 15 15 13 16 12 20 18 16 19 16 16 15 14 15 16 14 12 12 13 16 19 18 18 16 14 18 19 21 25 25 24 24 24 24 24 23 21 19 19 19 19 19 16 15 16 16 17 18 17 18 18 18 17 16 16 18 16 13 12 12 11 11 11 10 11 11 10 10 11 10 9 9 9 7 6 7 8
15 10 7 9 8 9 11 8 12 9 5 5 7 9 10 11 12 12 13 12 12 14 13 13 13 18 21 18 19 19 18 18 18 17 16 14 15 16 16 18 20 19 17 15 16 18 19 20 24 25 24 24 25 26 25 22 21 19 19 18 18 20 18 17 17 18 18 17 16 16 17 18 16 16 17 17 16 14 13 12 11 11 11 10 11 12 11 10 10 9 9 8 9 9 8 7 7
14 9 7 10 8 6 9 6 9 9 5 4 7 11 12 12 12 13 15 13 14 13 10 13 15 14 20 22 21 21 21 18 19 18 16 15 18 19 19 21 21 19 17 15 16 17 19 20 23 23 23 24 26 25 23 21 20 19 19 18 17 19 18 17 19 19 19 18 16 15 17 17 15 16 16 15 16 16 14 12 11 11 11 10 11 12 11 10 8 7 8 8 9 9 9 8 8
11 6 7 9 7 6 9 8 5 6 4 3 6 10 11 12 13 13 13 11 13 19 15 12 15 18 17 22 21 21 21 19 19 20 19 19 20 21 20 22 21 18 15 14 15 16 18 19 22 23 23 23 23 21 20 19 19 19 18 17 16 18 17 17 19 18 18 18 15 15 16 17 16 17 16 14 14 15 14 12 10 10 12 11 11 11 11 10 9 8 8 8 9 9 9 9 9
7 5 7 8 9 8 7 8 8 5 1 1 6 10 9 11 11 10 11 13 14 19 22 16 16 17 17 20 25 24 23 23 22 22 22 22 21 22 23 23 22 18 14 13 14 16 17 18 22 24 23 20 19 18 17 17 19 18 17 17 16 17 18 18 18 17 18 18 15 15 16 15 14 13 13 12 12 13 13 11 9 10 11 10 10 10 10 9 9 9 9 9 10 9 9 10 9
6 8 10 9 11 11 10 10 8 5 1 3 6 9 7 9 12 11 12 14 17 18 21 21 18 19 19 19 24 27 27 27 26 25 24 23 22 24 25 22 19 15 13 13 16 19 19 19 22 23 21 18 17 17 16 17 18 18 18 18 16 16 18 18 18 18 19 19 17 16 14 14 13 10 11 11 10 11 11 10 9 9 9 9 9 9 8 8 7 9 10 10 10 10 10 9 10
8 10 12 14 14 14 14 13 9 6 6 8 9 8 6 9 14 14 13 14 17 18 18 19 19 18 18 18 20 27 31 28 26 28 26 22 22 24 24 21 15 11 12 15 18 21 20 20 23 23 20 18 16 16 16 17 18 18 19 19 17 17 17 17 18 18 18 17 16 15 13 13 12 10 10 10 10 10 10 9 9 8 7 8 9 8 7 7 6 7 9 10 10 10 10 8 9
7 9 12 15 16 15 16 14 10 7 7 7 8 8 5 7 9 10 11 12 15 16 16 17 18 17 18 18 18 21 30 31 28 27 28 25 23 26 24 21 17 14 16 19 21 21 20 20 24 23 18 16 16 16 17 18 18 18 19 19 18 19 18 17 17 18 17 15 12 13 12 11 11 10 10 10 10 9 9 9 8 7 6 6 8 8 7 6 6 7 8 8 9 10 9 8 8
6 9 12 14 15 16 16 13 9 8 8 9 10 10 7 7 8 10 13 13 13 11 6 7 10 13 13 6 3 6 9 26 32 28 29 30 27 28 26 22 22 21 21 22 22 23 23 22 23 23 17 14 16 16 16 18 19 17 18 18 18 19 18 16 17 16 15 13 11 12 12 11 12 11 11 11 10 9 9 8 8 8 7 7 8 8 7 6 7 8 8 8 8 8 9 9 7
8 11 12 11 9 11 11 8 8 9 8 9 10 10 9 8 7 9 13 12 12 7 4 8 7 9 8 11 15 16 16 4 26 26 26 32 31 29 28 26 26 24 22 24 25 27 28 25 23 21 17 15 15 13 14 16 17 17 17 18 18 18 17 17 16 15 14 13 12 13 12 12 12 12 11 11 10 10 10 9 9 9 8 8 8 7 7 7 8 9 9 8 8 7 8 9 7
9 12 12 9 5 6 8 8 8 8 8 9 10 10 8 7 6 7 9 5 5 4 8 10 10 15 15 16 16 13 19 11 14 17 15 24 28 25 24 26 28 26 25 25 26 28 29 28 25 21 18 16 15 12 11 12 15 18 18 18 19 18 18 18 17 15 14 14 13 13 12 12 12 12 13 12 11 11 11 10 10 9 9 8 7 6 7 8 8 8 7 8 8 7 7 9 8
8 9 9 7 5 6 7 7 7 6 8 10 12 12 10 8 7 5 3 3 8 6 6 7 9 12 14 16 17 13 15 12 13 15 12 16 19 20 22 25 27 27 27 27 27 28 29 28 25 21 19 17 15 13 12 10 14 20 20 19 20 19 18 18 18 18 16 15 14 13 13 13 13 14 14 13 12 11 11 10 10 10 9 8 8 8 7 8 8 7 6 7 8 7 6 7 7
7 7 5 5 5 6 7 7 7 7 8 10 13 15 13 9 6 1 6 10 11 8 6 8 8 9 12 13 13 13 14 12 11 13 13 12 14 18 22 25 26 27 29 29 27 26 25 24 22 22 20 17 14 12 13 11 13 19 20 21 21 20 20 20 20 19 18 17 15 15 15 15 14 14 13 12 11 10 11 11 10 10 9 8 9 9 8 7 7 7 6 7 7 8 7 6 6
9 7 6 6 5 6 7 6 6 7 7 10 12 12 10 5 3 5 10 12 12 10 9 10 10 11 13 13 11 11 11 10 10 9 8 10 14 16 19 24 27 29 31 29 25 25 23 21 21 22 20 18 16 15 14 13 13 19 22 23 23 22 21 22 21 20 18 17 17 17 17 16 14 14 13 12 11 11 12 11 10 9 9 8 9 9 8 7 7 7 7 6 7 8 8 7 6
8 8 7 7 6 6 7 6 6 7 6 8 11 10 8 3 5 9 10 10 9 9 9 9 10 10 10 10 9 8 7 7 8 4 4 11 16 15 16 21 23 26 30 27 24 25 24 21 20 20 19 19 19 17 16 14 17 22 24 24 23 22 23 23 22 21 18 16 17 17 16 15 15 14 14 14 13 12 12 12 10 9 8 8 8 9 7 6 6 6 6 6 7 7 7 7 7
8 8 8 7 6 6 6 5 5 6 5 7 8 6 5 4 1 5 9 9 8 9 9 7 6 7 7 8 7 7 7 7 8 1 6 12 16 13 13 15 15 19 26 24 21 24 24 21 20 19 19 19 17 16 15 15 19 26 27 25 24 22 22 22 22 21 19 17 17 16 15 14 13 12 11 12 12 12 12 12 10 8 8 8 8 8 7 5 6 6 6 6 6 6 7 7 8
8 9 9 8 7 6 5 4 5 4 3 5 5 3 3 3 4 6 8 8 8 8 8 7 5 6 8 10 10 9 9 9 12 8 6 11 16 13 10 12 12 16 25 24 20 21 21 20 21 21 19 17 16 17 16 15 21 28 29 28 26 24 22 23 23 21 19 18 17 16 14 13 11 9 9 10 11 12 12 12 11 10 9 8 7 7 6 6 5 5 5 5 5 5 5 6 7
5 7 9 8 9 8 5 5 5 4 4 4 4 3 2 5 3 6 6 7 7 5 5 6 5 8 11 10 9 8 7 7 8 6 3 7 10 9 8 12 14 17 22 20 15 18 21 21 23 23 21 20 20 19 18 20 25 29 29 29 28 26 25 26 24 22 20 18 17 16 14 12 11 11 11 10 11 12 11 11 11 11 10 9 8 6 5 5 5 5 5 4 4 4 4 5 6
5 5 7 8 9 8 5 4 5 5 6 5 6 6 3 4 1 5 6 5 6 4 4 4 5 9 9 5 5 5 4 5 7 5 1 2 3 3 5 8 11 14 16 14 11 15 22 25 25 24 23 23 22 21 21 23 28 30 30 31 30 27 26 25 26 24 21 19 19 17 15 14 13 13 13 11 12 12 11 11 10 11 11 9 8 7 6 4 6 5 5 5 4 4 3 4 5
11 7 6 5 6 6 5 4 5 6 6 4 7 8 2 5 1 1 4 5 6 6 4 5 8 10 6 2 3 5 4 7 10 9 4 2 3 3 4 5 7 10 12 14 13 16 22 25 24 24 25 24 23 23 23 25 29 32 31 32 32 29 26 25 25 24 22 22 21 19 17 16 16 14 13 12 11 11 12 12 11 11 12 10 8 8 8 6 6 4 5 5 5 5 4 4 5
12 10 8 5 4 4 3 3 4 6 6 4 7 6 2 4 2 3 1 2 4 6 5 9 10 9 8 9 10 8 10 14 16 15 13 10 8 4 2 3 5 7 8 12 16 18 21 23 24 25 25 24 22 23 24 27 31 33 32 33 33 32 29 26 25 26 26 25 23 20 19 19 18 15 12 11 10 10 11 11 9 10 10 9 7 6 7 5 4 4 6 5 4 5 5 4 5
9 9 8 7 5 4 4 4 4 5 4 4 6 3 2 2 3 4 2 2 3 3 6 8 6 7 12 16 18 17 18 21 20 19 17 15 13 10 8 6 1 4 4 7 12 15 18 20 22 22 21 21 23 23 25 29 31 33 33 33 34 34 32 28 27 28 28 26 22 21 20 19 17 14 11 11 10 11 12 9 7 8 7 6 5 5 7 5 3 5 5 5 5 5 5 4 4
7 7 8 8 7 5 6 6 6 6 4 4 5 1 3 2 5 6 5 4 4 5 7 4 4 10 15 17 20 20 19 20 20 18 18 19 18 16 15 14 7 2 2 4 6 10 12 13 13 14 13 15 21 22 24 29 31 33 34 33 34 36 35 30 28 28 27 25 22 21 20 18 15 12 11 11 10 10 11 9 8 7 6 5 4 4 6 5 3 4 3 5 4 3 5 3 4
Wind_Direction
166 197 177 158 132 6 267 228 240 220 222 260 249 255 249 251 327 319 110 62 26 37 46 26 16 2 306 313 305 22 47 44 46 40 104 128 140 138 157 162 171 180 181 167 163 163 160 159 155 151 149 151 153 157 160 161 162 161 163 163 162 160 158 153 146 141 140 140 134 129 121 121 128 130 133 136 142 145 141 135 130 129 127 121 114 111 108 105 102 98 97 95 94 95 98 101 103
140 124 212 160 233 266 250 214 240 245 214 247 247 249 246 224 329 263 296 59 61 39 28 8 354 319 289 297 280 326 62 64 80 91 115 127 129 140 157 156 171 186 189 168 164 165 160 159 155 152 151 153 156 159 162 163 165 165 167 166 166 164 161 158 152 149 147 147 140 133 126 123 128 130 134 138 146 146 140 136 133 130 126 124 120 113 108 104 102 100 100 99 98 99 101 104 107
155 156 239 258 235 241 257 227 235 263 238 249 258 240 195 128 22 341 46 59 62 44 14 334 310 296 270 239 256 105 82 78 89 104 124 138 135 141 153 145 159 183 178 163 165 166 162 158 155 154 152 155 157 160 164 164 167 168 169 169 169 167 165 163 158 155 152 152 145 138 132 129 130 133 135 137 142 138 137 134 132 129 126 128 128 117 108 105 101 100 101 102 103 105 106 108 110
185 161 204 241 234 227 243 242 232 257 260 259 276 5 106 89 55 52 58 44 25 1 313 286 274 262 274 278 33 67 85 77 89 112 127 147 150 145 148 151 161 173 165 163 167 167 163 158 154 154 152 155 157 160 164 166 169 169 171 172 172 170 168 166 165 158 155 157 150 144 138 135 135 137 137 141 142 137 141 135 129 129 128 132 134 121 112 111 104 103 103 104 107 108 111 111 112
176 153 219 240 241 246 243 248 237 244 252 265 282 54 49 68 72 58 56 30 334 309 274 268 254 190 234 23 41 63 82 85 95 106 114 133 154 153 151 156 158 155 158 163 169 167 162 158 154 153 152 153 155 158 162 166 170 170 173 174 174 172 171 170 168 160 158 159 153 149 143 138 136 136 135 137 143 146 147 139 135 134 131 131 131 123 116 113 108 108 106 108 110 110 114 115 115
156 160 246 234 255 288 282 253 240 242 241 259 275 76 66 57 58 47 19 317 266 256 250 258 259 215 110 72 64 67 65 94 104 108 121 136 157 157 149 148 145 142 150 161 170 167 162 158 154 152 151 152 154 157 161 165 168 171 173 173 174 172 172 174 169 161 159 159 155 151 145 139 137 140 137 128 132 147 150 144 140 133 127 125 125 124 120 116 114 112 111 113 113 112 114 117 120
177 247 218 216 254 265 260 253 248 254 238 237 263 27 72 65 51 25 344 335 113 202 220 239 259 273 116 114 75 60 57 94 115 122 140 151 161 154 144 145 142 143 152 161 174 168 163 157 154 153 151 152 153 155 158 161 165 166 168 171 173 173 174 176 171 163 159 160 157 152 145 142 143 147 143 130 127 138 148 147 138 129 121 120 123 127 125 122 121 117 115 116 115 115 114 117 122
235 254 227 220 243 231 239 252 252 261 259 243 272 36 71 58 41 351 333 330 315 354 196 209 247 264 118 111 87 67 71 95 118 129 154 155 152 148 145 148 142 149 161 167 177 169 162 157 155 154 152 152 153 154 153 154 157 157 160 165 170 173 175 176 171 165 162 162 160 154 149 147 147 148 144 141 139 135 142 141 134 130 124 125 133 135 134 129 126 122 118 117 116 117 115 117 121
235 243 245 240 243 246 241 248 250 255 259 257 335 57 67 13 22 320 307 281 282 293 237 221 215 221 93 92 91 87 84 102 118 128 150 147 142 145 147 150 148 156 165 169 174 166 160 158 157 156 155 154 152 151 149 147 147 147 152 157 166 171 174 175 171 169 167 165 163 158 153 149 146 145 146 151 153 142 139 135 129 132 132 139 147 145 141 134 130 125 121 120 118 118 117 117 119
228 228 243 251 249 254 247 249 246 249 251 217 82 75 61 14 8 314 292 277 282 293 253 226 229 147 96 95 96 93 96 109 120 132 144 147 147 151 151 153 162 167 164 168 170 164 161 159 160 160 158 155 153 150 146 143 139 141 145 152 162 169 173 174 174 174 170 165 164 159 154 147 143 145 149 157 155 141 143 139 135 145 149 150 155 152 144 136 132 128 124 122 119 119 119 119 121
228 220 234 260 253 251 253 253 243 240 231 96 65 83 66 17 357 307 276 275 281 275 253 202 232 124 101 93 100 107 111 114 126 142 150 152 153 157 155 155 168 173 169 177 172 167 164 162 164 163 161 157 154 149 144 139 136 138 143 151 160 167 171 173 175 173 166 162 161 158 154 149 143 145 150 155 145 138 147 144 143 162 171 163 160 153 144 138 135 131 127 123 121 121 121 123 126
239 221 217 245 252 253 262 262 266 258 146 100 324 96 75 342 339 309 297 299 291 263 219 197 210 116 102 86 105 125 124 126 139 152 159 155 155 157 157 157 165 175 177 180 174 173 169 165 167 166 164 159 154 148 143 138 136 139 143 152 159 165 170 171 172 168 162 161 160 157 154 152 147 147 147 146 140 141 151 149 153 175 182 170 161 153 148 144 139 134 129 123 121 121 123 127 129
239 247 229 243 255 263 271 273 288 300 291 80 102 105 93 311 20 339 320 307 290 259 242 241 186 103 100 101 115 140 135 141 151 159 161 153 158 157 158 161 168 184 182 175 174 177 174 169 170 169 165 159 154 147 143 140 138 142 143 152 158 164 168 169 169 164 161 160 159 155 153 155 152 149 142 140 141 144 157 161 167 183 184 171 161 156 155 149 142 137 132 124 119 119 123 126 131
233 249 255 263 269 268 275 277 290 288 281 80 87 101 103 326 24 347 298 280 269 251 330 337 117 97 115 124 130 161 146 150 159 161 159 156 163 160 163 163 172 188 180 179 179 179 178 173 171 168 164 157 152 147 145 143 141 144 143 150 158 163 167 168 168 164 161 157 155 154 155 158 155 154 144 142 150 153 164 172 178 187 185 173 166 164 162 153 145 142 137 129 120 117 117 119 127
240 252 262 272 274 266 268 267 275 281 15 84 91 81 66 293 20 319 279 272 291 333 350 309 139 95 149 145 156 175 156 154 163 160 161 163 165 165 167 167 178 182 173 186 186 182 181 174 172 167 161 155 152 149 147 146 144 145 144 149 158 163 165 165 167 162 157 156 156 155 158 162 158 158 151 151 163 163 166 174 184 190 187 183 178 175 167 155 147 146 141 133 125 116 111 110 118
242 260 269 260 262 258 261 251 248 263 71 83 82 68 25 271 73 314 314 287 291 312 279 269 345 76 143 154 163 169 158 156 162 160 163 166 167 170 169 170 182 179 174 187 192 186 181 173 171 165 160 155 153 151 148 148 147 145 145 150 156 161 162 163 166 161 156 157 159 158 160 164 160 160 160 163 170 167 167 176 189 193 193 195 188 180 169 158 152 149 144 138 131 122 112 109 114
235 252 260 253 253 247 256 261 269 263 91 84 54 48 351 306 59 316 347 264 266 277 249 68 65 69 102 140 159 160 157 159 161 161 167 169 169 172 171 174 180 182 180 185 192 183 176 171 167 162 159 157 155 153 150 149 148 146 146 149 154 159 160 164 165 159 158 158 159 161 161 162 163 164 167 172 172 170 171 180 191 198 199 200 196 185 170 163 156 150 145 139 136 129 120 116 117
235 234 241 249 244 241 269 15 6 360 64 62 46 40 334 328 2 338 323 247 228 245 227 104 86 72 73 119 154 156 159 165 165 165 172 172 172 174 174 179 182 186 185 184 188 178 173 169 161 159 156 158 156 150 151 148 146 147 147 149 157 162 163 166 165 162 161 158 160 165 165 165 167 170 173 178 177 175 177 183 192 200 205 205 201 188 173 166 162 155 148 142 138 133 128 128 126
234 234 235 241 245 268 325 14 355 1 42 32 25 37 348 332 333 327 313 279 244 250 221 135 98 91 91 120 150 156 162 168 170 172 177 175 176 177 176 182 186 188 190 191 186 172 168 159 150 156 155 158 154 147 152 149 146 146 146 152 162 165 166 168 168 169 166 161 165 172 173 172 172 176 176 180 183 183 184 189 197 201 207 211 201 191 181 170 167 161 155 150 143 139 139 138 137
225 235 243 238 247 317 347 348 344 353 359 342 333 5 9 295 300 317 308 305 288 276 249 169 116 109 115 131 156 163 168 173 176 179 179 178 179 178 179 183 186 183 171 162 167 157 150 148 146 155 159 161 160 159 158 150 143 142 144 156 166 167 169 171 171 174 171 169 174 178 181 178 174 178 179 179 184 186 187 193 202 204 202 199 192 190 187 179 176 172 166 159 153 156 155 147 150
215 221 245 249 264 324 328 324 349 344 328 322 310 308 303 282 313 331 291 291 264 285 301 133 122 127 142 156 174 175 180 182 182 184 183 183 180 178 180 181 181 180 153 70 142 163 153 150 150 157 165 168 170 169 161 154 148 148 153 164 172 172 173 174 175 179 178 179 180 181 185 184 179 183 185 180 184 187 184 193 204 206 191 181 182 185 188 187 183 181 180 171 168 170 173 177 173
229 229 248 260 281 309 313 340 355 329 314 302 289 277 285 292 313 291 274 282 275 321 3 119 131 143 156 171 182 185 190 190 190 190 188 186 182 180 177 174 174 181 181 147 149 171 173 164 156 158 165 169 169 166 159 159 159 158 162 171 176 178 179 177 179 183 183 184 182 183 188 189 185 188 189 183 187 186 183 197 199 188 169 161 170 176 183 190 191 194 193 186 181 169 182 233 206
243 243 248 260 272 279 283 312 327 313 303 287 284 280 287 300 296 276 269 271 279 313 31 130 144 156 167 182 185 189 194 192 195 187 180 187 191 192 173 165 173 182 185 165 149 164 174 173 162 156 164 171 168 168 166 163 165 161 165 175 177 180 183 182 185 185 184 186 183 184 189 190 189 190 190 188 188 183 182 191 184 162 148 147 157 159 163 171 182 192 194 197 194 174 176 229 238
236 250 252 259 264 263 268 280 290 293 288 279 280 280 283 284 276 269 261 263 276 287 128 136 153 156 167 187 189 187 185 178 184 177 178 187 192 208 188 177 179 180 173 165 163 166 176 180 172 161 163 171 174 178 174 165 165 163 170 181 178 179 183 184 187 188 185 187 189 191 192 192 190 189 189 191 188 181 178 171 170 154 142 151 146 153 172 142 138 180 205 212 192 180 171 206 247
231 248 256 262 270 270 267 274 280 273 270 268 268 267 266 262 263 267 266 276 273 265 236 138 153 150 166 181 179 168 159 173 211 208 199 187 185 181 197 201 189 182 179 181 178 171 176 179 180 174 166 170 181 185 175 164 166 167 177 187 182 180 183 186 189 193 191 188 194 197 191 190 189 190 188 186 183 178 173 163 171 155 156 195 164 164 190 162 164 193 204 199 157 179 183 196 238
229 242 248 256 264 263 258 258 260 259 259 259 260 257 255 254 252 258 259 261 260 255 291 190 160 152 162 159 160 165 175 212 214 205 197 187 193 191 192 201 200 196 197 196 187 177 177 179 186 185 175 175 185 188 176 168 171 174 179 185 186 184 186 191 191 195 197 191 195 194 188 188 185 187 186 182 180 172 169 168 172 163 177 204 178 168 185 176 185 189 182 171 151 198 215 206 241
248 252 253 258 263 264 260 254 252 255 257 255 258 260 259 256 248 247 246 246 253 248 245 244 178 143 137 129 142 172 193 212 208 196 190 191 201 199 194 199 204 203 202 197 187 179 175 178 187 188 183 181 184 183 179 175 176 178 178 180 187 190 188 191 193 195 199 194 193 192 190 189 183 185 186 184 183 172 172 180 180 184 195 197 176 173 182 177 179 166 166 171 162 191 207 206 253
265 266 269 269 269 268 263 262 256 252 256 256 257 262 261 255 249 246 247 248 241 225 240 241 140 112 127 134 135 172 217 215 203 193 189 190 197 198 198 202 206 205 203 198 192 184 176 179 185 187 186 183 182 180 178 178 178 176 176 181 187 189 189 190 195 196 199 199 193 190 187 185 186 189 188 185 185 180 182 196 198 199 201 194 186 185 182 174 171 161 164 168 166 187 195 195 235
262 265 274 267 263 260 252 249 245 240 243 248 249 255 254 246 246 242 249 257 238 203 237 216 116 110 132 147 148 174 217 217 201 193 188 190 194 196 201 210 212 209 207 202 200 193 181 184 186 188 188 186 185 181 177 176 177 176 176 183 184 184 187 189 193 192 195 198 191 187 181 182 189 190 188 184 190 194 188 196 202 198 199 198 193 186 182 176 175 178 174 180 186 189 196 197 217
255 253 260 263 264 254 241 235 229 230 233 236 239 256 256 243 239 229 238 258 240 189 233 210 128 128 140 145 152 169 197 212 203 195 192 192 195 195 198 210 218 214 211 206 201 194 186 188 187 190 190 187 186 181 176 174 177 177 175 181 183 182 184 183 185 185 188 190 190 189 182 182 190 189 188 187 198 202 188 190 196 192 195 199 193 184 183 179 179 183 172 178 194 195 202 200 208
254 250 244 244 260 257 243 224 207 216 222 210 197 252 268 269 251 221 219 244 231 185 222 224 145 138 146 143 148 161 174 195 196 193 198 197 198 199 198 208 221 217 214 211 201 192 188 188 188 190 188 185 185 179 176 176 176 175 173 177 181 182 182 178 174 177 183 184 187 189 183 184 188 187 188 192 200 197 184 188 189 189 198 199 194 189 184 180 180 177 166 174 192 203 211 203 206
236 244 244 231 238 261 250 198 180 207 210 186 199 253 259 267 272 235 213 221 217 188 215 234 159 139 145 140 143 152 158 181 193 191 194 197 203 204 207 212 219 220 216 213 205 196 190 187 188 189 184 184 185 179 176 176 173 171 170 170 177 181 179 175 166 166 178 179 183 189 187 189 191 190 191 193 195 189 185 192 188 190 199 191 186 187 185 180 180 184 179 180 189 200 213 208 206
219 222 244 242 228 248 244 161 170 201 195 173 202 251 264 253 279 265 197 189 193 191 224 247 174 141 143 139 144 148 152 176 192 196 194 194 207 211 216 218 220 225 222 219 209 198 195 192 192 190 184 185 184 180 177 176 174 169 166 167 174 181 180 175 164 161 172 179 186 191 190 192 192 193 195 191 185 183 188 194 192 190 186 181 182 180 183 180 178 193 189 179 187 192 198 199 192
215 214 236 254 247 251 227 158 179 201 195 193 203 228 269 267 277 340 133 153 192 213 230 248 182 141 144 140 146 154 157 175 181 196 204 199 214 216 209 218 225 225 225 230 215 201 202 199 197 190 184 185 183 181 178 174 175 169 167 167 168 176 177 173 169 166 172 178 183 187 191 194 192 191 193 187 178 184 190 191 195 195 184 185 184 176 182 184 181 198 195 179 189 189 184 182 182
220 209 210 239 253 264 255 162 169 179 177 219 231 224 245 267 272 221 149 171 204 233 237 242 195 148 153 151 153 160 160 175 183 193 205 201 214 217 201 216 227 228 228 233 216 201 205 203 197 189 185 186 183 183 179 173 173 170 170 170 168 173 172 170 176 174 176 181 179 182 189 192 192 189 189 186 182 187 192 192 195 196 194 190 183 179 186 193 191 196 194 185 190 187 187 187 180
244 243 237 243 243 249 255 182 148 162 174 209 241 245 240 261 270 265 244 204 202 217 224 244 208 154 164 165 157 166 166 174 190 196 203 198 205 215 211 218 227 233 235 228 207 199 203 202 194 188 188 186 184 184 179 173 173 172 173 175 174 175 175 176 178 175 179 187 181 182 188 188 190 190 189 190 186 183 190 200 201 195 197 192 184 186 192 202 206 202 191 184 183 176 185 193 183
264 292 299 274 259 234 234 190 158 176 204 217 247 265 256 260 268 270 270 254 232 214 195 234 229 164 168 173 165 176 179 177 184 193 199 196 204 213 214 221 227 235 239 219 198 198 202 201 193 191 191 187 187 186 179 176 179 178 175 175 174 174 178 181 180 180 183 186 182 182 186 186 188 189 190 191 188 188 196 208 212 200 197 196 194 194 196 205 210 205 190 180 177 172 174 186 194
270 294 290 272 270 259 255 221 160 157 167 223 259 271 264 258 261 263 266 266 266 256 206 204 234 208 179 176 176 182 186 184 180 182 191 197 206 211 210 218 229 238 234 209 195 199 203 202 196 195 195 189 189 186 180 180 185 185 180 177 176 176 181 181 179 183 181 181 182 180 183 186 189 190 191 191 193 201 210 215 216 206 199 202 204 201 202 206 205 200 190 179 172 173 174 180 195
264 270 261 263 268 272 270 254 190 156 165 220 262 272 266 259 252 249 253 249 257 268 257 205 218 241 211 180 178 183 184 188 189 189 193 199 205 209 207 213 228 237 224 200 196 203 204 203 197 195 196 192 189 185 184 186 187 185 182 180 181 183 187 181 178 181 179 179 180 178 183 188 191 188 187 193 201 207 216 220 216 207 204 208 209 206 206 208 209 203 192 179 171 175 180 181 189
253 247 246 251 257 264 268 248 224 218 230 351 293 284 274 272 272 266 261 256 253 258 261 240 209 231 237 194 178 179 177 180 190 195 196 198 201 207 205 205 217 224 215 198 197 204 203 198 195 194 195 193 191 190 190 192 188 181 180 184 187 189 188 182 179 181 181 182 183 183 186 191 194 189 188 200 207 207 214 218 215 207 207 212 210 206 207 208 210 204 193 183 173 173 182 180 182
242 242 247 251 250 251 255 256 253 257 224 169 246 274 270 263 265 263 258 253 251 247 253 255 225 218 236 216 188 181 182 182 181 184 192 196 199 206 203 198 205 212 213 208 204 210 206 195 193 193 192 192 194 197 195 194 191 184 184 188 192 192 186 183 184 183 184 185 189 193 193 194 197 195 195 201 205 207 209 209 210 208 209 213 206 202 208 208 203 199 194 186 173 173 186 183 177
244 233 235 249 259 259 262 272 283 270 233 208 224 253 257 245 243 246 246 237 237 234 233 249 245 224 224 230 210 186 183 188 186 186 194 195 194 203 204 198 198 205 217 224 222 219 211 199 195 192 191 193 197 204 201 194 193 192 192 194 195 190 187 189 187 185 186 183 184 190 190 190 194 193 193 196 200 202 201 200 205 208 210 209 201 198 202 201 192 190 193 186 175 181 190 186 176
249 239 224 231 245 257 264 275 287 273 260 268 266 272 279 258 254 259 262 251 239 225 212 226 241 235 224 229 229 202 187 187 186 187 193 192 188 196 202 196 197 210 221 226 225 219 211 203 198 194 192 196 202 209 205 196 197 199 198 199 196 190 190 190 186 185 186 182 178 182 186 187 189 189 187 190 193 193 194 194 196 201 205 197 193 193 193 196 187 183 194 188 182 191 190 182 179
240 247 238 231 231 240 246 250 265 274 277 281 272 270 277 269 274 284 284 287 270 239 223 235 238 244 238 222 315 292 202 182 178 179 186 186 184 190 193 193 202 216 215 213 217 218 215 209 202 199 196 196 203 208 206 201 201 201 198 197 192 189 190 188 187 185 181 182 180 182 190 189 187 187 186 188 189 189 191 186 186 193 194 186 186 188 188 195 187 183 199 195 183 193 189 180 185
242 246 256 263 250 251 262 256 252 258 261 266 260 254 261 259 254 260 267 285 282 258 37 25 8 351 352 36 34 8 2 151 174 175 176 177 182 189 194 200 208 211 204 204 216 221 217 211 205 204 202 197 197 199 205 207 205 201 195 192 190 188 187 187 191 186 179 184 182 183 194 191 186 187 187 190 189 188 188 183 185 188 187 185 182 184 190 193 188 188 202 199 185 194 193 191 200
243 250 266 284 264 257 280 276 262 260 250 251 253 251 265 275 265 257 255 287 337 11 49 42 27 16 12 22 30 18 2 16 153 159 159 170 183 192 199 208 207 200 197 203 215 219 214 209 205 204 203 196 188 183 190 204 213 209 201 198 195 191 187 185 189 188 185 189 183 185 194 189 185 187 188 192 190 187 188 187 187 184 185 187 176 185 199 196 192 193 198 195 190 193 195 199 201
242 250 263 267 242 240 259 263 263 266 254 252 255 252 253 265 276 285 281 52 56 54 39 36 36 23 13 13 18 12 1 26 122 141 144 164 185 196 204 212 206 199 198 201 208 212 208 206 204 202 201 196 187 178 178 199 223 219 210 207 202 197 195 191 192 192 189 190 187 185 188 189 190 191 192 194 190 189 188 187 187 182 184 183 173 185 199 196 196 197 193 188 189 191 193 202 197
237 242 246 249 235 224 234 238 234 240 250 256 257 253 248 254 271 313 83 59 47 48 32 24 27 21 18 15 9 11 20 47 109 141 151 162 182 194 203 207 206 206 202 198 201 203 204 203 200 198 198 196 189 183 185 196 216 218 213 209 205 203 203 199 194 191 187 187 187 184 185 189 192 193 195 192 189 195 193 191 191 186 187 183 177 184 191 192 195 198 199 194 193 194 194 199 193
224 229 218 236 241 224 227 225 225 237 246 253 258 259 252 255 352 61 81 64 46 45 34 20 16 14 16 11 2 14 37 66 98 124 153 180 191 193 201 204 206 208 202 198 198 195 194 195 193 192 194 193 188 187 189 189 204 215 212 207 204 203 202 198 192 188 186 186 184 185 187 187 189 192 192 186 186 197 196 193 195 194 195 193 186 185 186 190 193 194 201 201 200 203 202 203 198
210 226 216 222 233 234 234 227 237 249 255 272 277 270 249 222 47 48 66 70 64 64 54 34 21 14 15 8 358 4 22 66 88 92 201 210 208 200 200 203 208 210 203 198 199 196 192 190 191 192 192 190 188 190 189 186 195 200 201 203 204 201 198 194 188 183 182 185 184 185 186 186 194 198 192 188 191 197 192 188 193 196 198 201 195 189 185 191 197 195 203 206 205 210 209 210 211
205 228 234 229 232 245 246 233 245 252 271 299 294 282 265 226 127 64 75 77 67 67 70 62 33 17 20 14 7 7 11 51 80 81 243 228 225 219 205 204 217 224 214 205 203 199 193 191 192 195 196 193 193 196 191 190 192 186 188 198 200 198 197 193 188 182 177 181 184 184 185 190 202 201 192 194 193 188 185 185 187 186 191 202 202 196 194 197 198 192 201 209 207 214 214 216 223
205 214 227 234 236 247 255 258 273 284 289 289 281 307 7 96 95 57 71 80 68 62 68 70 53 39 37 24 16 13 9 50 93 127 205 220 226 230 217 212 224 227 220 216 212 203 196 195 196 199 203 203 206 207 198 194 192 183 181 189 192 194 195 190 187 182 177 181 185 184 186 191 198 191 190 196 186 180 187 189 184 182 190 199 197 199 201 204 201 191 197 203 204 221 222 217 222
217 211 222 231 236 243 249 253 262 269 266 260 248 264 108 118 68 25 48 71 63 53 63 70 68 59 50 30 18 14 359 27 84 118 188 209 217 219 196 201 213 214 216 217 207 202 207 205 201 201 202 204 209 209 202 194 188 181 175 178 184 190 192 189 185 180 176 180 186 185 184 188 187 183 191 191 176 179 189 186 187 192 195 194 192 189 181 199 216 201 201 206 199 218 217 198 206
249 231 229 228 231 241 245 243 239 234 247 248 232 233 159 125 327 353 14 42 46 31 49 61 60 65 62 27 360 7 2 25 60 76 167 224 238 236 192 199 218 219 219 215 189 191 205 205 202 203 202 205 208 206 203 196 188 183 176 176 181 186 188 186 181 178 178 181 186 183 181 185 182 186 195 186 177 185 181 176 189 196 193 191 189 172 151 196 240 219 202 207 197 201 197 180 188
237 245 246 236 228 230 225 234 241 235 245 254 241 238 108 90 180 322 346 356 8 354 12 44 41 47 56 53 19 358 5 35 49 56 53 19 357 306 254 239 233 221 215 212 200 194 197 200 203 206 205 206 208 206 202 195 190 188 183 178 177 179 182 181 176 176 181 185 184 180 181 182 181 189 195 182 182 187 179 181 192 192 190 187 185 172 161 196 242 220 193 202 195 184 175 173 181
225 238 243 244 251 249 228 227 238 240 244 251 252 245 88 60 64 101 93 347 354 330 359 38 32 20 21 39 40 22 23 32 32 35 36 32 29 14 303 256 208 189 183 195 206 203 197 201 206 206 207 207 206 204 199 195 191 189 186 179 174 174 176 174 172 177 183 184 180 179 183 184 184 192 192 180 181 178 174 185 190 188 188 181 182 184 176 197 234 207 190 187 179 173 170 177 180
210 228 236 234 237 235 226 219 222 244 262 262 263 259 103 40 22 66 118 115 73 30 38 39 17 15 24 30 30 24 25 27 25 24 24 23 24 28 16 2 119 158 150 176 206 211 203 208 210 206 207 207 205 201 199 199 195 190 187 179 171 172 171 169 176 184 184 181 179 182 185 186 188 194 189 177 175 171 167 171 175 178 179 172 182 192 184 190 213 214 205 182 183 184 171 183 189
220 217 230 236 238 234 234 232 215 215 239 257 259 234 100 55 29 41 30 31 60 82 91 83 28 32 32 28 26 23 21 21 22 20 20 19 21 25 23 16 24 68 132 159 201 217 210 214 216 208 209 212 211 205 201 201 196 190 189 182 174 173 171 172 182 186 180 178 182 186 185 185 185 186 181 167 162 166 162 162 171 169 161 171 186 187 179 176 191 229 213 165 167 134 133 195 251